Voltar ao catálogo

COSMOS 1595

GLONASS

AtivoNavegaçãoMEO
NORAD 15261·PAYLOAD·🇷🇺 Russia

Lançado Sep 4, 1984 de Baikonur Cosmodrome

Loading…

Próximas Passagens (próximas 24 horas)

TLE

EnvelhecendoSource: Space-Track

Época: Aug 29, 2026, 21:14 UTC

1 15261U 84095C   26241.88484604  .00000029  00000-0  00000+0 0  9998
2 15261  64.8575  68.6779 0047913 217.3670 320.4342  2.13102090301094

Acompanhe COSMOS 1595 em tempo real com AllMySat

Download on the App Store